Regional Weather Roundup
Issued by NWS Bismarck, ND

Home | Current Version | Previous Version | Text Only | Print | Product List | Glossary On
Versions: 1 2 3 4 5 6 7 8 9 10 11 12 13 14 15 16 17 18 19 20 21 22 23 24 25 26 27 28 29 30 31 32 33 34 35 36 37 38 39 40 41 42 43 44 45 46 47 48 49 50
000
ASUS43 KBIS 041810
RWRBIS

NWR BROADCAST TEXT
NATIONAL WEATHER SERVICE BISMARCK ND
100 PM CDT SAT JUL 04 2015

NOTE: "FAIR" INDICATES FEW OR NO CLOUDS BELOW 12,000 FEET WITH NO
SIGNIFICANT WEATHER AND/OR OBSTRUCTIONS TO VISIBILITY.


CITY           SKY/WX    TMP DP  RH WIND       PRES   REMARKS
WILLISTON      SUNNY     88  64  44 SE8       29.71F
MINOT          SUNNY     85  64  49 S14       29.73F HAZE
MINOT AFB      SUNNY     85  69  57 S13       29.72F
BISMARCK       SUNNY     83  68  60 SE13      29.78F
DICKINSON      SUNNY     85  66  53 S7        29.77F
GARRISON         N/A     82  68  62 S12       29.76F
HETTINGER ARPT SUNNY     84  63  49 VRB3      29.81F
JAMESTOWN      SUNNY     83  63  50 S16       29.81F
BEACH          FAIR      86  59  39 CALM      29.79S
CROSBY         FAIR      81  73  78 S7        29.72S
HARVEY         FAIR      84  64  51 S13G20    29.77F
HAZEN          FAIR      84  66  54 S14       29.76F
LINTON         FAIR      82  73  74 S12G17    29.79S
MANDAN         FAIR      82  68  61 S9        29.79F
OAKES            N/A     81  72  74 SE9       29.83F
STANLEY        FAIR      82  72  69 S15       29.75F
$$

CITY           SKY/WX    TMP DP  RH WIND       PRES   REMARKS
GRAND FORKS    CLOUDY    82  67  60 S12       29.81F HAZE
GRAND FORKS AF SUNNY     82  68  62 S10       29.81F
DEVILS LAKE    SUNNY     84  64  51 S15       29.78F
FARGO          MOSUNNY   82  67  60 S10G20    29.83F
CANDO          FAIR      82  68  61 S14G21    29.78S
CAVALIER       FAIR      82  70  65 S14       29.77F HAZE
GRAFTON        FAIR      82  68  61 S14G21    29.80F HAZE
GWINNER        FAIR      82  64  54 S13       29.85F
LANGDON        FAIR      84  68  58 S18       29.80F HAZE
ROLLA            N/A     77  68  73 S14G20    29.78F
WALHALLA       FAIR      82  68  61 MISG      29.76F HAZE
$$

CITY           SKY/WX    TMP DP  RH WIND       PRES   REMARKS
ABERDEEN       SUNNY     83  70  64 S14       29.83F
MOBRIDGE       SUNNY     84  70  62 S14       29.78F
BUFFALO          N/A     86  61  42 SW9       29.76F
RAPID CITY     SUNNY     86  63  45 NW5       29.84S
GLASGOW        SUNNY     91  54  28 NW12      29.69F
SIDNEY         SUNNY     90  61  37 SE8       29.72F
WOLF POINT     SUNNY     94  59  31 NW7       29.68F HX  93
GLENDIVE       SUNNY     91  59  33 S12       29.75F HX  90
MILES CITY     SUNNY     94  55  26 VRB3      29.75F HX  92
BAKER          SUNNY     89  54  30 S9        29.81S
$$

CITY           SKY/WX    TMP DP  RH WIND       PRES   REMARKS
BILLINGS       MOSUNNY   93  46  19 NW9       29.86F
GREAT FALLS    SUNNY     79  52  38 NW9       29.91R
REGINA         CLOUDY    72  59  64 N17G25    29.77R
$$




USA.gov is the U.S. government's official web portal to all federal, state and local government web resources and services.